• In Deutschland
  • Länderverzeichnis
  • Für 7 Tage
  • Wassertemperatur
  • Satellitenkarten
  • Wetterkarte
  • Widgets
  • user-avatar
    Anmelden

    Stündliche Wetter Korçe

    Heute, 17 August, Donnerstag

    Zeit Temperatur Niederschläge Wind Luftdruck Luftfeuchtigkeit
    00:00 +18°C° 0,1 mm 2 m/S 668 mmHg 62%
    01:00 +18°C° 0 mm 2 m/S 667 mmHg 63%
    02:00 +17°C° 0 mm 2 m/S 667 mmHg 65%
    03:00 +17°C° 0 mm 2 m/S 667 mmHg 67%
    04:00 +17°C° 0 mm 2 m/S 667 mmHg 68%
    05:00 +18°C° 0 mm 2 m/S 667 mmHg 64%
    06:00 +20°C° 0 mm 2 m/S 668 mmHg 59%
    07:00 +21°C° 0 mm 2 m/S 668 mmHg 55%
    08:00 +24°C° 0 mm 2 m/S 669 mmHg 48%
    09:00 +25°C° 0 mm 2 m/S 669 mmHg 41%
    10:00 +27°C° 0 mm 2 m/S 670 mmHg 34%
    11:00 +28°C° 0 mm 3 m/S 670 mmHg 32%
    12:00 +29°C° 0 mm 3 m/S 670 mmHg 30%
    13:00 +30°C° 0 mm 3 m/S 670 mmHg 28%
    14:00 +29°C° 0 mm 3 m/S 670 mmHg 29%
    15:00 +28°C° 0 mm 3 m/S 669 mmHg 31%
    16:00 +28°C° 0 mm 3 m/S 669 mmHg 32%
    17:00 +26°C° 0 mm 3 m/S 669 mmHg 36%
    18:00 +24°C° 0 mm 2 m/S 668 mmHg 40%
    19:00 +23°C° 0 mm 2 m/S 668 mmHg 44%
    20:00 +21°C° 0 mm 2 m/S 668 mmHg 46%
    21:00 +20°C° 0 mm 2 m/S 668 mmHg 48%
    22:00 +19°C° 0 mm 2 m/S 668 mmHg 50%
    23:00 +18°C° 0 mm 2 m/S 668 mmHg 51%

    Morgen, 18 August, Freitag

    Zeit Temperatur Niederschläge Wind Luftdruck Luftfeuchtigkeit
    00:00 +18°C° 0 mm 2 m/S 668 mmHg 51%
    01:00 +17°C° 0 mm 2 m/S 668 mmHg 51%
    02:00 +17°C° 0 mm 2 m/S 668 mmHg 52%
    03:00 +17°C° 0 mm 2 m/S 668 mmHg 53%
    04:00 +16°C° 0 mm 2 m/S 668 mmHg 54%
    05:00 +18°C° 0 mm 2 m/S 668 mmHg 51%
    06:00 +20°C° 0 mm 2 m/S 669 mmHg 48%
    07:00 +21°C° 0 mm 2 m/S 669 mmHg 45%
    08:00 +24°C° 0 mm 2 m/S 670 mmHg 40%
    09:00 +26°C° 0 mm 2 m/S 670 mmHg 34%
    10:00 +28°C° 0 mm 2 m/S 671 mmHg 29%
    11:00 +28°C° 0 mm 2 m/S 671 mmHg 27%
    12:00 +29°C° 0 mm 2 m/S 671 mmHg 26%
    13:00 +30°C° 0 mm 2 m/S 671 mmHg 24%
    14:00 +30°C° 0 mm 2 m/S 670 mmHg 25%
    15:00 +29°C° 0 mm 3 m/S 670 mmHg 26%
    16:00 +29°C° 0 mm 3 m/S 670 mmHg 27%
    17:00 +27°C° 0 mm 2 m/S 670 mmHg 33%
    18:00 +24°C° 0 mm 2 m/S 669 mmHg 39%
    19:00 +22°C° 0 mm 1 m/S 669 mmHg 44%
    20:00 +21°C° 0 mm 1 m/S 669 mmHg 46%
    21:00 +20°C° 0 mm 1 m/S 669 mmHg 48%
    22:00 +20°C° 0 mm 1 m/S 669 mmHg 50%
    23:00 +19°C° 0 mm 1 m/S 668 mmHg 50%

    übermorgen, 19 August, Samstag

    Zeit Temperatur Niederschläge Wind Luftdruck Luftfeuchtigkeit
    00:00 +19°C° 0 mm 1 m/S 668 mmHg 51%
    01:00 +19°C° 0 mm 1 m/S 668 mmHg 51%
    02:00 +18°C° 0 mm 1 m/S 668 mmHg 52%
    03:00 +18°C° 0 mm 1 m/S 668 mmHg 52%
    04:00 +18°C° 0 mm 1 m/S 667 mmHg 53%
    05:00 +20°C° 0 mm 1 m/S 668 mmHg 49%
    06:00 +21°C° 0 mm 1 m/S 669 mmHg 46%
    07:00 +23°C° 0 mm 1 m/S 669 mmHg 42%
    08:00 +25°C° 0 mm 1 m/S 670 mmHg 38%
    09:00 +27°C° 0 mm 1 m/S 670 mmHg 34%
    10:00 +29°C° 0 mm 1 m/S 671 mmHg 29%
    11:00 +29°C° 0 mm 1 m/S 671 mmHg 29%
    12:00 +29°C° 0 mm 2 m/S 670 mmHg 28%
    13:00 +30°C° 0 mm 2 m/S 670 mmHg 27%
    14:00 +29°C° 0 mm 2 m/S 670 mmHg 29%
    15:00 +28°C° 0 mm 2 m/S 669 mmHg 31%
    16:00 +27°C° 0 mm 3 m/S 669 mmHg 33%
    17:00 +26°C° 0 mm 2 m/S 669 mmHg 37%
    18:00 +24°C° 0 mm 2 m/S 669 mmHg 41%
    19:00 +22°C° 0 mm 1 m/S 668 mmHg 45%
    20:00 +21°C° 0 mm 1 m/S 668 mmHg 47%
    21:00 +20°C° 0 mm 1 m/S 668 mmHg 49%
    22:00 +19°C° 0 mm 1 m/S 668 mmHg 50%
    23:00 +19°C° 0 mm 1 m/S 668 mmHg 51%

    20 August, Sonntag

    Zeit Temperatur Niederschläge Wind Luftdruck Luftfeuchtigkeit
    00:00 +19°C° 0 mm 1 m/S 668 mmHg 51%
    01:00 +18°C° 0 mm 1 m/S 667 mmHg 51%
    02:00 +18°C° 0 mm 1 m/S 667 mmHg 51%
    03:00 +18°C° 0 mm 1 m/S 667 mmHg 51%
    04:00 +16°C° 0 mm 1 m/S 667 mmHg 51%
    05:00 +19°C° 0 mm 1 m/S 667 mmHg 47%
    06:00 +21°C° 0 mm 1 m/S 668 mmHg 43%
    07:00 +23°C° 0 mm 1 m/S 668 mmHg 39%
    08:00 +25°C° 0 mm 1 m/S 669 mmHg 35%
    09:00 +27°C° 0 mm 1 m/S 669 mmHg 31%
    10:00 +29°C° 0 mm 1 m/S 670 mmHg 27%
    11:00 +29°C° 0 mm 2 m/S 670 mmHg 26%
    12:00 +30°C° 0 mm 2 m/S 669 mmHg 26%
    13:00 +30°C° 0 mm 3 m/S 669 mmHg 25%
    14:00 +29°C° 0 mm 3 m/S 669 mmHg 28%
    15:00 +29°C° 0 mm 3 m/S 668 mmHg 31%
    16:00 +28°C° 0 mm 3 m/S 668 mmHg 34%
    17:00 +26°C° 0 mm 2 m/S 668 mmHg 41%
    18:00 +24°C° 0 mm 2 m/S 667 mmHg 48%
    19:00 +22°C° 0 mm 1 m/S 667 mmHg 55%
    20:00 +21°C° 0,1 mm 1 m/S 667 mmHg 59%
    21:00 +20°C° 0,1 mm 1 m/S 667 mmHg 63%
    22:00 +19°C° 0,1 mm 1 m/S 667 mmHg 66%
    23:00 +19°C° 0,1 mm 1 m/S 667 mmHg 67%

    21 August, Montag

    Zeit Temperatur Niederschläge Wind Luftdruck Luftfeuchtigkeit
    00:00 +18°C° 0,1 mm 1 m/S 667 mmHg 67%
    01:00 +18°C° 0,1 mm 1 m/S 666 mmHg 67%
    02:00 +18°C° 0,1 mm 1 m/S 666 mmHg 68%
    03:00 +16°C° 0,1 mm 1 m/S 666 mmHg 69%
    04:00 +16°C° 0,1 mm 1 m/S 666 mmHg 70%
    05:00 +18°C° 0,1 mm 1 m/S 666 mmHg 66%
    06:00 +20°C° 0,1 mm 1 m/S 667 mmHg 63%
    07:00 +21°C° 0,1 mm 1 m/S 667 mmHg 59%
    08:00 +23°C° 0,3 mm 2 m/S 668 mmHg 54%
    09:00 +24°C° 0,3 mm 2 m/S 668 mmHg 48%
    10:00 +26°C° 0,3 mm 2 m/S 668 mmHg 43%
    11:00 +26°C° 0,5 mm 2 m/S 668 mmHg 42%
    12:00 +26°C° 0,5 mm 3 m/S 668 mmHg 42%
    13:00 +27°C° 0,5 mm 3 m/S 668 mmHg 41%
    14:00 +26°C° 0,3 mm 3 m/S 668 mmHg 42%
    15:00 +26°C° 0,3 mm 3 m/S 668 mmHg 44%
    16:00 +25°C° 0,3 mm 3 m/S 667 mmHg 45%
    17:00 +22°C° 0 mm 3 m/S 667 mmHg 49%
    18:00 +21°C° 0 mm 3 m/S 667 mmHg 54%
    19:00 +19°C° 0 mm 2 m/S 667 mmHg 58%
    20:00 +18°C° 0 mm 2 m/S 667 mmHg 59%
    21:00 +17°C° 0 mm 2 m/S 667 mmHg 61%
    22:00 +16°C° 0 mm 2 m/S 667 mmHg 62%
    23:00 +15°C° 0 mm 2 m/S 667 mmHg 61%

    22 August, Dienstag

    Zeit Temperatur Niederschläge Wind Luftdruck Luftfeuchtigkeit
    00:00 +14°C° 0 mm 2 m/S 667 mmHg 60%
    01:00 +14°C° 0 mm 2 m/S 667 mmHg 59%
    02:00 +13°C° 0 mm 2 m/S 667 mmHg 60%
    03:00 +13°C° 0 mm 2 m/S 666 mmHg 61%
    04:00 +12°C° 0 mm 2 m/S 666 mmHg 62%
    05:00 +14°C° 0 mm 2 m/S 667 mmHg 57%
    06:00 +15°C° 0 mm 2 m/S 668 mmHg 53%
    07:00 +17°C° 0 mm 2 m/S 668 mmHg 49%
    08:00 +19°C° 0 mm 2 m/S 669 mmHg 40%
    09:00 +21°C° 0 mm 2 m/S 669 mmHg 32%
    10:00 +24°C° 0 mm 2 m/S 670 mmHg 24%
    11:00 +25°C° 0 mm 2 m/S 670 mmHg 22%
    12:00 +26°C° 0 mm 2 m/S 670 mmHg 20%
    13:00 +27°C° 0 mm 2 m/S 670 mmHg 18%
    14:00 +27°C° 0 mm 2 m/S 669 mmHg 18%
    15:00 +27°C° 0 mm 2 m/S 669 mmHg 19%
    16:00 +27°C° 0 mm 3 m/S 669 mmHg 20%
    17:00 +24°C° 0 mm 2 m/S 668 mmHg 26%
    18:00 +20°C° 0 mm 2 m/S 668 mmHg 31%
    19:00 +18°C° 0 mm 1 m/S 667 mmHg 37%
    20:00 +18°C° 0 mm 1 m/S 667 mmHg 38%
    21:00 +16°C° 0 mm 1 m/S 667 mmHg 39%
    22:00 +15°C° 0 mm 1 m/S 667 mmHg 39%
    23:00 +15°C° 0 mm 1 m/S 667 mmHg 39%
    Mehr zeigen